Jefferson, NC

2:31 AM EST on December 12, 2017 (GMT -0500)
Ashe County

Weather History for KGEV - November, 2011

Change the Weather History Date:

Sunday, November 13, 2011

  Actual Average Record
Temperature  
Mean Temperature 46 °F -  
Max Temperature 53 °F 53 °F 70 °F (1989)
Min Temperature 39 °F 30 °F 17 °F (1977)
Degree Days  
Heating Degree Days 19    
Moisture  
Dew Point 26 °F    
Average Humidity 48    
Maximum Humidity 81    
Minimum Humidity 30    
Precipitation  
Precipitation 0.00 in - - ()
Sea Level Pressure  
Sea Level Pressure 30.14 in    
Wind  
Wind Speed 3 mph (SSE)    
Max Wind Speed 7 mph    
Max Gust Speed -    
Visibility 10 miles    
Events      
Averages and records for this station are not official NWS values.
T = Trace of Precipitation, MM = Missing Value Source: NWS Daily Summary

Daily Weather History Graph

Daily Weather History Graph

Search for Another Location

Airport or City:

Trip Planner

Search our weather history database for the weather conditions in past years. The results will help you decide how hot, cold, wet, or windy it might be!

Date:

Astronomy

Nov. 13, 2011 Rise Set
Actual Time 7:00 AM EST 5:18 PM EST
Civil Twilight 6:33 AM EST 5:46 PM EST
Nautical Twilight 6:02 AM EST 6:17 PM EST
Astronomical Twilight 5:31 AM EST 6:47 PM EST
Moon 7:29 PM EST (11/13) 9:29 AM EST (11/13)
Length of Visible Light 11h 12m
Length of Day
10h 18m
Waning Gibbous, 93% of the Moon is Illuminated
Nov 13
Waning Gibbous
Nov 18
Last Quarter
Nov 25
New
Dec 2
First Quarter
Dec 10
Full

Hourly Weather History & Observations

Time (EST) Temp. Windchill Dew Point Humidity Pressure Visibility Wind Dir Wind Speed Gust Speed Precip Events Conditions
12:15 AM 41.0 °F 38.0 °F 26.6 °F 57% 30.19 in 10.0 mi South 4.6 mph - N/A   Clear
12:35 AM 41.0 °F 38.0 °F 26.6 °F 57% 30.18 in 10.0 mi South 4.6 mph - N/A   Clear
12:55 AM 41.0 °F 38.0 °F 26.6 °F 57% 30.17 in 10.0 mi South 4.6 mph - N/A   Clear
1:15 AM 42.8 °F - 24.8 °F 49% 30.18 in 10.0 mi Calm Calm - N/A   Clear
1:35 AM 42.8 °F 41.1 °F 24.8 °F 49% 30.18 in 10.0 mi West 3.5 mph - N/A   Clear
1:55 AM 42.8 °F 41.1 °F 24.8 °F 49% 30.17 in 10.0 mi South 3.5 mph - N/A   Clear
2:15 AM 42.8 °F - 23.0 °F 46% 30.16 in 10.0 mi Calm Calm - N/A   Clear
2:35 AM 41.0 °F 38.0 °F 23.0 °F 49% 30.16 in 10.0 mi South 4.6 mph - N/A   Clear
2:55 AM 42.8 °F - 23.0 °F 46% 30.16 in 10.0 mi Calm Calm - N/A   Clear
3:15 AM 42.8 °F - 21.2 °F 42% 30.16 in 10.0 mi Calm Calm - N/A   Clear
3:35 AM 41.0 °F 39.0 °F 23.0 °F 49% 30.14 in 10.0 mi SSE 3.5 mph - N/A   Clear
3:55 AM 41.0 °F - 23.0 °F 49% 30.14 in 10.0 mi Calm Calm - N/A   Clear
4:15 AM 41.0 °F - 23.0 °F 49% 30.14 in 10.0 mi Calm Calm - N/A   Clear
4:35 AM 41.0 °F - 23.0 °F 49% 30.14 in 10.0 mi Calm Calm - N/A   Clear
4:55 AM 42.8 °F - 21.2 °F 42% 30.15 in 10.0 mi Calm Calm - N/A   Clear
5:15 AM 41.0 °F - 21.2 °F 45% 30.15 in 10.0 mi Calm Calm - N/A   Clear
5:35 AM 41.0 °F - 23.0 °F 49% 30.15 in 10.0 mi Calm Calm - N/A   Clear
6:15 AM 41.0 °F - 23.0 °F 49% 30.15 in 10.0 mi Calm Calm - N/A   Clear
6:55 AM 41.0 °F - 23.0 °F 49% 30.16 in 10.0 mi Calm Calm - N/A   Clear
7:15 AM 41.0 °F - 23.0 °F 49% 30.16 in 10.0 mi Calm Calm - N/A   Clear
7:35 AM 39.2 °F 37.0 °F 23.0 °F 52% 30.16 in 10.0 mi SE 3.5 mph - N/A   Clear
7:55 AM 41.0 °F - 24.8 °F 53% 30.16 in 10.0 mi Calm Calm - N/A   Clear
8:15 AM 41.0 °F - 24.8 °F 53% 30.17 in 10.0 mi Calm Calm - N/A   Clear
8:35 AM 42.8 °F - 26.6 °F 53% 30.17 in 10.0 mi Calm Calm - N/A   Clear
8:55 AM 42.8 °F - 26.6 °F 53% 30.18 in 10.0 mi Calm Calm - N/A   Clear
9:35 AM 46.4 °F - 26.6 °F 46% 30.17 in 10.0 mi Calm Calm - N/A   Clear
9:55 AM 50.0 °F - 26.6 °F 40% 30.17 in 10.0 mi Calm Calm - N/A   Clear
10:15 AM 51.8 °F - 24.8 °F 35% 30.17 in 10.0 mi Calm Calm - N/A   Clear
10:35 AM 51.8 °F - 23.0 °F 33% 30.17 in 10.0 mi South 5.8 mph - N/A   Clear
10:55 AM 51.8 °F - 23.0 °F 33% 30.16 in 10.0 mi SSE 5.8 mph - N/A   Clear
11:15 AM 51.8 °F - 23.0 °F 33% 30.17 in 10.0 mi SE 4.6 mph - N/A   Clear
11:35 AM 53.6 °F - 24.8 °F 33% 30.16 in 10.0 mi SSE 4.6 mph - N/A   Clear
11:55 AM 53.6 °F - 24.8 °F 33% 30.15 in 10.0 mi South 3.5 mph - N/A   Clear
12:15 PM 51.8 °F - 24.8 °F 35% 30.13 in 10.0 mi SSE 5.8 mph - N/A   Clear
12:35 PM 50.0 °F - 24.8 °F 37% 30.13 in 10.0 mi SSE 6.9 mph - N/A   Clear
12:55 PM 50.0 °F - 23.0 °F 35% 30.11 in 10.0 mi SSE 5.8 mph - N/A   Clear
1:15 PM 51.8 °F - 21.2 °F 30% 30.11 in 10.0 mi SSE 5.8 mph - N/A   Clear
1:35 PM 50.0 °F - 21.2 °F 32% 30.09 in 10.0 mi SSE 6.9 mph - N/A   Clear
1:55 PM 50.0 °F - 21.2 °F 32% 30.08 in 10.0 mi South 5.8 mph - N/A   Clear
2:15 PM 51.8 °F - 21.2 °F 30% 30.08 in 10.0 mi SSE 5.8 mph - N/A   Clear
2:35 PM 51.8 °F - 21.2 °F 30% 30.08 in 10.0 mi South 6.9 mph - N/A   Clear
2:55 PM 51.8 °F - 21.2 °F 30% 30.07 in 10.0 mi South 4.6 mph - N/A   Clear
3:15 PM 51.8 °F - 23.0 °F 33% 30.07 in 10.0 mi South 5.8 mph - N/A   Clear
3:35 PM 50.0 °F - 23.0 °F 35% 30.08 in 10.0 mi South 4.6 mph - N/A   Clear
3:55 PM 50.0 °F - 26.6 °F 40% 30.08 in 10.0 mi SSE 5.8 mph - N/A   Clear
4:15 PM 50.0 °F - 26.6 °F 40% 30.09 in 10.0 mi South 4.6 mph - N/A   Clear
4:35 PM 48.2 °F - 26.6 °F 43% 30.09 in 10.0 mi Calm Calm - N/A   Clear
4:55 PM 48.2 °F - 28.4 °F 46% 30.09 in 10.0 mi Calm Calm - N/A   Clear
5:15 PM 46.4 °F - 28.4 °F 50% 30.11 in 10.0 mi Calm Calm - N/A   Clear
5:35 PM 46.4 °F - 28.4 °F 50% 30.10 in 10.0 mi Calm Calm - N/A   Clear
5:55 PM 46.4 °F - 30.2 °F 53% 30.11 in 10.0 mi Calm Calm - N/A   Clear
6:15 PM 46.4 °F - 32.0 °F 57% 30.12 in 10.0 mi Calm Calm - N/A   Clear
6:35 PM 44.6 °F - 32.0 °F 61% 30.11 in 10.0 mi Calm Calm - N/A   Clear
6:55 PM 44.6 °F - 32.0 °F 61% 30.13 in 10.0 mi Calm Calm - N/A   Clear
7:15 PM 44.6 °F - 35.6 °F 71% 30.13 in 10.0 mi Calm Calm - N/A   Clear
7:35 PM 44.6 °F 43.1 °F 35.6 °F 71% 30.14 in 10.0 mi SE 3.5 mph - N/A   Clear
7:55 PM 44.6 °F - 35.6 °F 71% 30.13 in 10.0 mi Calm Calm - N/A   Clear
8:15 PM 46.4 °F 44.3 °F 35.6 °F 66% 30.13 in 10.0 mi SE 4.6 mph - N/A   Scattered Clouds
8:35 PM 46.4 °F - 37.4 °F 71% 30.12 in 10.0 mi Calm Calm - N/A   Scattered Clouds
8:55 PM 46.4 °F 43.5 °F 37.4 °F 71% 30.12 in 10.0 mi South 5.8 mph - N/A   Scattered Clouds
9:15 PM 46.4 °F - 39.2 °F 76% 30.12 in 10.0 mi Calm Calm - N/A   Scattered Clouds
9:35 PM 46.4 °F 45.2 °F 41.0 °F 81% 30.11 in 10.0 mi SSE 3.5 mph - N/A   Scattered Clouds
9:55 PM 46.4 °F - 41.0 °F 81% 30.11 in 10.0 mi Calm Calm - N/A   Clear
10:15 PM 46.4 °F 45.2 °F 41.0 °F 81% 30.12 in 10.0 mi South 3.5 mph - N/A   Scattered Clouds
10:35 PM 46.4 °F - 41.0 °F 81% 30.11 in 10.0 mi Calm Calm - N/A   Scattered Clouds
10:55 PM 48.2 °F - 42.8 °F 82% 30.11 in 10.0 mi SSE 3.5 mph - N/A   Scattered Clouds
11:15 PM 50.0 °F - 42.8 °F 76% 30.10 in 10.0 mi South 4.6 mph - N/A   Clear
11:35 PM 50.0 °F - 42.8 °F 76% 30.10 in 10.0 mi South 3.5 mph - N/A   Clear
11:55 PM 50.0 °F - 42.8 °F 76% 30.10 in 10.0 mi South 5.8 mph - N/A   Scattered Clouds